Hoonah, AK

8:07 PM AKDT on September 25, 2016 (GMT -0800)
Hoonah

Weather History for PAOH - October, 2014

Change the Weather History Date:

Sunday, October 26, 2014

  Actual Average Record
Temperature  
Mean Temperature 38 °F -  
Max Temperature 45 °F 41 °F 52 °F (2013)
Min Temperature 30 °F 34 °F 20 °F (2012)
Degree Days  
Heating Degree Days 28    
Moisture  
Dew Point 34 °F    
Average Humidity 100    
Maximum Humidity 100    
Minimum Humidity 93    
Precipitation  
Precipitation 0.00 in - - ()
Sea Level Pressure  
Sea Level Pressure 29.83 in    
Wind  
Wind Speed 0 mph (ESE)    
Max Wind Speed 4 mph    
Max Gust Speed -    
Visibility 6 miles    
Events Fog , Rain    
Averages and records for this station are not official NWS values.
T = Trace of Precipitation, MM = Missing Value Source: NWS Daily Summary

Daily Weather History Graph

Daily Weather History Graph

Search for Another Location

Airport or City:

Trip Planner

Search our weather history database for the weather conditions in past years. The results will help you decide how hot, cold, wet, or windy it might be!

Date:

Astronomy

Oct. 26, 2014 Rise Set
Actual Time 8:02 AM AKDT 5:27 PM AKDT
Civil Twilight 7:21 AM AKDT 6:08 PM AKDT
Nautical Twilight 6:35 AM AKDT 6:55 PM AKDT
Astronomical Twilight 5:49 AM AKDT 7:40 PM AKDT
Moon 11:14 AM AKDT 7:18 PM AKDT
Length of Visible Light 10h 47m
Length of Day
9h 24m
Waxing Crescent, 9% of the Moon is Illuminated
Oct 26
Waxing Crescent
Oct 30
First Quarter
Nov 6
Full
Nov 14
Last Quarter
Nov 22
New

Hourly Weather History & Observations

Time (AKDT) Temp. Windchill Dew Point Humidity Pressure Visibility Wind Dir Wind Speed Gust Speed Precip Events Conditions
12:00 AM 30.2 °F - 30.2 °F 100% 29.74 in 3.0 mi Calm Calm - N/A   Overcast
12:14 AM 30.2 °F - 30.2 °F 100% 29.75 in 1.5 mi Calm Calm - N/A   Overcast
12:23 AM 30.2 °F - 30.2 °F 100% 29.75 in 3.0 mi Calm Calm - N/A   Overcast
12:30 AM 30.2 °F - 30.2 °F 100% 29.75 in 1.8 mi Calm Calm - N/A   Overcast
12:56 AM 30.2 °F - 30.2 °F 100% 29.76 in 0.8 mi Calm Calm - N/A   Overcast
1:56 AM 31.1 °F - 31.1 °F 100% 29.78 in 0.2 mi Calm Calm - N/A Fog Light Freezing Fog
2:20 AM 30.2 °F - 30.2 °F 100% 29.77 in 0.8 mi Calm Calm - N/A   Overcast
2:24 AM 30.2 °F - 30.2 °F 100% 29.77 in 1.2 mi Calm Calm - N/A   Overcast
2:27 AM 30.2 °F - 30.2 °F 100% 29.77 in 2.0 mi Calm Calm - N/A   Overcast
2:34 AM 30.2 °F - 30.2 °F 100% 29.77 in 1.2 mi Calm Calm - N/A   Mostly Cloudy
2:42 AM 30.2 °F - 30.2 °F 100% 29.77 in 2.0 mi Calm Calm - N/A   Mostly Cloudy
2:56 AM 31.1 °F 27.7 °F 31.1 °F 100% 29.78 in 10.0 mi East 3.5 mph - N/A   Mostly Cloudy
3:56 AM 31.1 °F - 31.1 °F 100% 29.79 in 10.0 mi Calm Calm - N/A   Mostly Cloudy
4:56 AM 30.0 °F - 30.0 °F 100% 29.80 in 10.0 mi Calm Calm - N/A   Clear
5:44 AM 30.2 °F - 30.2 °F 100% 29.81 in 10.0 mi Calm Calm - N/A   Mostly Cloudy
5:56 AM 30.0 °F - 30.0 °F 100% 29.82 in 10.0 mi Calm Calm - N/A   Mostly Cloudy
6:02 AM 30.2 °F 26.7 °F 30.2 °F 100% 29.81 in 1.8 mi East 3.5 mph - N/A   Overcast
6:15 AM 30.2 °F - 30.2 °F 100% 29.81 in 1.0 mi Calm Calm - N/A   Overcast
6:25 AM 30.2 °F - 30.2 °F 100% 29.82 in 0.5 mi Calm Calm - N/A Fog Light Freezing Fog
6:56 AM 30.2 °F - 30.2 °F 100% 29.82 in 0.8 mi Calm Calm - N/A   Overcast
7:00 AM 30.2 °F - 30.2 °F 100% 29.82 in 1.2 mi Calm Calm - N/A   Overcast
7:04 AM 30.2 °F - 30.2 °F 100% 29.83 in 2.0 mi Calm Calm - N/A   Overcast
7:17 AM 30.2 °F - 30.2 °F 100% 29.83 in 4.0 mi Calm Calm - N/A   Overcast
7:56 AM 30.0 °F - 30.0 °F 100% 29.84 in 4.0 mi Calm Calm - N/A   Overcast
8:33 AM 30.2 °F - 30.2 °F 100% 29.84 in 1.5 mi Calm Calm - N/A   Overcast
8:37 AM 30.2 °F - 30.2 °F 100% 29.84 in 1.0 mi Calm Calm - N/A   Overcast
8:56 AM 32.0 °F - 32.0 °F 100% 29.85 in 0.8 mi Calm Calm - N/A   Overcast
9:00 AM 32.0 °F - 32.0 °F 100% 29.85 in 1.2 mi Calm Calm - N/A   Overcast
9:04 AM 32.0 °F - 32.0 °F 100% 29.85 in 2.5 mi Calm Calm - N/A   Overcast
9:16 AM 32.0 °F - 32.0 °F 100% 29.85 in 10.0 mi Calm Calm - N/A   Overcast
9:56 AM 33.8 °F - 33.8 °F 100% 29.86 in 10.0 mi Calm Calm - N/A   Overcast
10:56 AM 36.0 °F - 36.0 °F 100% 29.88 in 10.0 mi Calm Calm - N/A   Overcast
11:56 AM 38.8 °F 36.5 °F 38.8 °F 100% 29.89 in 10.0 mi SSE 3.5 mph - 0.00 in Rain Light Rain
12:56 PM 41.9 °F - 41.9 °F 100% 29.89 in 10.0 mi Calm Calm - 0.00 in   Scattered Clouds
1:56 PM 43.9 °F - 43.0 °F 97% 29.89 in 10.0 mi Calm Calm - N/A   Overcast
2:56 PM 45.0 °F - 43.9 °F 96% 29.89 in 10.0 mi Calm Calm - N/A   Scattered Clouds
3:56 PM 44.6 °F - 42.8 °F 93% 29.89 in 10.0 mi Calm Calm - N/A   Overcast
4:56 PM 43.9 °F - 43.9 °F 100% 29.90 in 10.0 mi Calm Calm - 0.00 in   Overcast
5:56 PM 41.9 °F - 41.9 °F 100% 29.90 in 10.0 mi Calm Calm - N/A   Overcast
6:56 PM 39.9 °F - 39.9 °F 100% 29.89 in 10.0 mi Calm Calm - N/A   Clear
7:56 PM 38.8 °F - 38.8 °F 100% 29.90 in 10.0 mi Calm Calm - 0.00 in   Overcast
8:56 PM 38.8 °F - 38.8 °F 100% 29.90 in 10.0 mi Calm Calm - N/A   Mostly Cloudy
9:56 PM 38.8 °F 36.5 °F 38.8 °F 100% 29.90 in 10.0 mi East 3.5 mph - 0.00 in   Overcast
10:56 PM 37.9 °F - 37.9 °F 100% 29.91 in 10.0 mi Calm Calm - N/A   Scattered Clouds
11:09 PM 37.4 °F - 37.4 °F 100% 29.90 in 10.0 mi Calm Calm - N/A   Mostly Cloudy
11:56 PM 37.9 °F - 37.9 °F 100% 29.91 in 10.0 mi Calm Calm - N/A   Mostly Cloudy